TimeCDT,TemperatureF,Dew PointF,Humidity,Sea Level PressureIn,VisibilityMPH,Wind Direction,Wind SpeedMPH,Gust SpeedMPH,PrecipitationIn,Events,Conditions,WindDirDegrees,DateUTC
12:53 AM,63.0,3.0,9,29.62,10.0,SSW,13.8,-,N/A,,Clear,210,2013-03-17 05:53:00
1:53 AM,61.0,3.9,10,29.62,10.0,SW,12.7,-,N/A,,Clear,220,2013-03-17 06:53:00
2:53 AM,62.1,3.0,9,29.62,10.0,SW,15.0,-,N/A,,Clear,220,2013-03-17 07:53:00
3:53 AM,61.0,5.0,11,29.62,10.0,SW,13.8,-,N/A,,Clear,220,2013-03-17 08:53:00
5:53 AM,55.9,8.1,15,29.65,10.0,Calm,Calm,-,N/A,,Clear,0,2013-03-17 10:53:00
6:53 AM,54.0,8.1,16,29.70,10.0,WNW,13.8,-,N/A,,Clear,300,2013-03-17 11:53:00
7:53 AM,46.0,28.9,51,29.77,10.0,West,8.1,-,N/A,,Clear,280,2013-03-17 12:53:00
8:53 AM,48.9,35.1,59,29.81,10.0,WNW,9.2,-,N/A,,Clear,290,2013-03-17 13:53:00
9:53 AM,53.1,37.9,57,29.83,10.0,WNW,11.5,-,N/A,,Clear,300,2013-03-17 14:53:00
10:53 AM,55.9,39.0,53,29.83,10.0,NNW,6.9,-,N/A,,Clear,330,2013-03-17 15:53:00
11:53 AM,62.1,39.0,43,29.81,10.0,North,-9999.0,-,N/A,,Clear,0,2013-03-17 16:53:00
12:53 PM,66.9,37.9,34,29.77,10.0,NW,8.1,-,N/A,,Clear,310,2013-03-17 17:53:00
1:53 PM,72.0,35.1,26,29.73,10.0,NNW,6.9,-,N/A,,Clear,330,2013-03-17 18:53:00
2:53 PM,75.9,30.9,19,29.68,10.0,NNW,8.1,-,N/A,,Clear,340,2013-03-17 19:53:00
3:53 PM,80.1,26.1,14,29.62,10.0,North,8.1,-,N/A,,Clear,350,2013-03-17 20:53:00
4:53 PM,82.9,19.0,9,29.59,10.0,WNW,11.5,18.4,N/A,,Clear,300,2013-03-17 21:53:00
5:53 PM,82.9,18.0,9,29.58,-9999.0,West,5.8,-,N/A,,Unknown,260,2013-03-17 22:53:00
6:53 PM,82.9,3.0,5,29.60,10.0,West,16.1,26.5,N/A,,Clear,280,2013-03-17 23:53:00
7:53 PM,78.1,3.0,5,29.64,10.0,WNW,15.0,24.2,N/A,,Clear,290,2013-03-18 00:53:00
8:53 PM,70.0,6.1,8,29.66,10.0,West,9.2,-,N/A,,Clear,280,2013-03-18 01:53:00
9:53 PM,70.0,7.0,9,29.68,10.0,West,11.5,-,N/A,,Clear,280,2013-03-18 02:53:00
10:53 PM,71.1,7.0,8,29.69,10.0,West,12.7,-,N/A,,Clear,270,2013-03-18 03:53:00
11:53 PM,70.0,7.0,9,29.70,10.0,West,10.4,-,N/A,,Clear,260,2013-03-18 04:53:00